This demonstration page uses our WeatherBlox Daily Observations layout. Learn more.

Left ArrowRight Arrow

44.31136, -96.79839

Hourly Observations for August 22, 2018

Temp ( °F °C ) Dew Point ( °F °C ) Humidity (%) Winds ( mph kmh ) Pressure ( in mb ) Visibility ( mi km ) Precip ( " mm )
12:56 am 00:56 Clear 53 11.7 50 10 89 89 Calm 30.29 1026 10 16 0.00 0.00
1:56 am 01:56 Clear 52 11.1 50 10 93 93 SW 3 6 30.30 1026 10 16 0.00 0.00
2:56 am 02:56 Clear 54 12.2 49 9.4 83 83 Calm 30.29 1026 10 16 0.00 0.00
3:56 am 03:56 Clear 52 11.1 48 8.9 86 86 SSW 6 9 30.30 1026 10 16 0.00 0.00
4:56 am 04:56 Mostly Cloudy 53 11.7 49 9.4 86 86 Calm 30.30 1026 10 16 0.00 0.00
5:56 am 05:56 Mostly Clear 52 11.1 48 8.9 86 86 Calm 30.30 1026 10 16 0.00 0.00
6:56 am 06:56 Mostly Sunny 50 10 47 8.3 89 89 SSW 5 7 30.31 1027 10 16 0.00 0.00
7:56 am 07:56 Sunny 54 12.2 50 10 87 87 SW 3 6 30.32 1027 10 16 0.00 0.00
9:56 am 09:56 Sunny 65 18.3 54 12.2 68 68 W 8 13 30.31 1027 10 16 0.00 0.00
10:56 am 10:56 Sunny 69 20.6 52 11.1 55 55 W 10 17 30.31 1026 10 16 0.00 0.00
11:56 am 11:56 Sunny 71 21.7 52 11.1 51 51 W 8 13 30.30 1026 10 16 0.00 0.00
12:56 pm 12:56 Sunny 72 22.2 51 10.6 48 48 WNW 7 11 30.28 1025 10 16 0.00 0.00
1:56 pm 13:56 Sunny 73 22.8 50 10 44 44 WSW 8 13 30.27 1025 10 16 0.00 0.00
2:56 pm 14:56 Sunny 74 23.3 50 10 43 43 W 9 15 30.24 1024 10 16 0.00 0.00
3:56 pm 15:56 Mostly Cloudy 74 23.3 50 10 43 43 SSW 10 17 30.22 1023 10 16 0.00 0.00
4:56 pm 16:56 Mostly Sunny 74 23.3 52 11.1 46 46 SSW 10 17 30.20 1023 10 16 0.00 0.00
5:56 pm 17:56 Mostly Sunny 73 22.8 54 12.2 51 51 SW 12 19 30.18 1022 10 16 0.00 0.00
6:56 pm 18:56 Sunny 72 22.2 55 12.8 55 55 SSW 6 9 30.17 1022 10 16 0.00 0.00
8:56 pm 20:56 Clear 64 17.8 54 12.2 70 70 S 8 13 30.14 1021 10 16 0.00 0.00
9:56 pm 21:56 Clear 63 17.2 53 11.7 70 70 S 9 15 30.14 1021 10 16 0.00 0.00
10:56 pm 22:56 Clear 61 16.1 53 11.7 75 75 S 9 15 30.12 1020 10 16 0.00 0.00
11:56 pm 23:56 Clear 60 15.6 52 11.1 75 75 S 12 19 30.11 1020 10 16 0.00 0.00

Powered by AerisWeather